White Rock, British Columbia

8:04 PM PST on December 17, 2017 (GMT -0800)
White Rock

Weather History for CWWK - March, 2014

Change the Weather History Date:

Saturday, March 22, 2014

  Actual Average Record
Temperature  
Mean Temperature 36 °F -  
Max Temperature 42 °F - - ()
Min Temperature 31 °F - - ()
Degree Days  
Heating Degree Days 28    
Moisture  
Dew Point 33 °F    
Average Humidity 79    
Maximum Humidity 89    
Minimum Humidity 54    
Precipitation  
Precipitation 0.03 in - - ()
Sea Level Pressure  
Sea Level Pressure 30.34 in    
Wind  
Wind Speed 2 mph ()    
Max Wind Speed 5 mph    
Max Gust Speed -    
T = Trace of Precipitation, MM = Missing Value Source: Averaged Metar Reports

Daily Weather History Graph

Daily Weather History Graph

Search for Another Location

Airport or City:

Trip Planner

Search our weather history database for the weather conditions in past years. The results will help you decide how hot, cold, wet, or windy it might be!

Date:

Astronomy

Mar. 22, 2014 Rise Set
Actual Time 7:09 AM PDT 7:27 PM PDT
Civil Twilight 6:37 AM PDT 7:58 PM PDT
Nautical Twilight 6:00 AM PDT 8:36 PM PDT
Astronomical Twilight 5:21 AM PDT 9:15 PM PDT
Moon 1:16 AM PDT (3/22) 10:32 AM PDT (3/22)
Length of Visible Light 13h 21m
Length of Day
12h 17m
Waning Gibbous, 64% of the Moon is Illuminated
Mar 22
Waning Gibbous
Mar 23
Last Quarter
Mar 30
New
Apr 7
First Quarter
Apr 15
Full

Hourly Weather History & Observations

Time (PDT) Temp. Windchill Dew Point Humidity Pressure Visibility Wind Dir Wind Speed Gust Speed Precip Events Conditions
12:00 AM 36.7 °F - 30.2 °F 77% 30.36 in - NNE 1.2 mph - N/A   Unknown
1:00 AM 35.6 °F - 28.9 °F 77% 30.35 in - NNE 2.3 mph - N/A   Unknown
2:00 AM 34.2 °F - 28.8 °F 81% 30.36 in - Calm Calm - N/A   Unknown
3:00 AM 33.8 °F - 28.9 °F 82% 30.36 in - North 1.2 mph - N/A   Unknown
4:00 AM 33.3 °F - 28.2 °F 82% 30.35 in - NE 1.2 mph - N/A   Unknown
5:00 AM 32 °F - 29 °F 82% 30.35 in - East 1.2 mph - -  
5:00 AM 31.6 °F - 28.6 °F 88% 30.35 in - East 1.2 mph - N/A   Unknown
6:00 AM 36.0 °F 33.3 °F 30.6 °F 81% 30.35 in - NE 3.5 mph - N/A   Unknown
7:00 AM 36.5 °F 33.9 °F 30.2 °F 78% 30.35 in - NNE 3.5 mph - N/A   Unknown
8:00 AM 37.2 °F - 30.0 °F 75% 30.35 in - ENE 1.2 mph - N/A   Unknown
9:00 AM 39.0 °F - 30.7 °F 72% 30.35 in - East 1.2 mph - N/A   Unknown
10:00 AM 40.5 °F 38.4 °F 30.4 °F 67% 30.36 in - ENE 3.5 mph - N/A   Unknown
11:00 AM 42 °F - 31 °F 54% 30.37 in - ENE 3.5 mph - -  
11:00 AM 41.5 °F 39.6 °F 30.9 °F 66% 30.37 in - ENE 3.5 mph - N/A   Unknown
12:00 PM 42.8 °F - 31.8 °F 65% 30.37 in - NNE 2.3 mph - N/A   Unknown
1:00 PM 41.9 °F 39.0 °F 34.3 °F 75% 30.36 in - NE 4.6 mph - N/A   Unknown
2:00 PM 41.5 °F 38.6 °F 35.8 °F 80% 30.36 in - NE 4.6 mph - N/A   Unknown
3:00 PM 40.6 °F 37.5 °F 36.3 °F 85% 30.35 in - NNE 4.6 mph - 0.02 in   Unknown
4:00 PM 40.3 °F 37.1 °F 34.7 °F 80% 30.33 in - NE 4.6 mph - 0.01 in   Unknown
5:00 PM 40 °F - 36 °F 82% 30.32 in - NE 4.6 mph - -  
5:00 PM 39.7 °F 36.5 °F 36.3 °F 88% 30.32 in - NE 4.6 mph - N/A   Unknown
6:00 PM 39.9 °F 37.8 °F 34.7 °F 82% 30.31 in - NE 3.5 mph - N/A   Unknown
7:00 PM 40.3 °F 37.1 °F 36.7 °F 87% 30.30 in - NE 4.6 mph - N/A   Unknown
8:00 PM 40.1 °F - 36.3 °F 86% 30.30 in - NE 2.3 mph - N/A   Unknown
9:00 PM 39.9 °F - 36.3 °F 87% 30.31 in - NNE 2.3 mph - N/A   Unknown
10:00 PM 39.2 °F - 36.0 °F 88% 30.31 in - North 1.2 mph - N/A   Unknown
11:00 PM 39 °F - 36 °F 85% 30.32 in - NNE 2.3 mph - -  
11:00 PM 39.0 °F - 36.1 °F 89% 30.32 in - NNE 2.3 mph - N/A   Unknown